#timestamp,LO_Frequency,Hit,StdDev 
1514062815.3,286046998.8,N
1514062835.1,286046997.6,Y
1514062855.9,286046997.8,P
1514062875.7,286046997.5,N
1514062895.6,286046999.6,N
1514062915.4,286047001.2,N
1514062935.2,286046997.2,N
1514062955.1,286046997.0,N
1514062956.0,286046997.0,N
1514062975.8,286046999.3,N
1514062995.6,286047001.2,N
1514063015.5,286047002.8,N
1514063035.3,286047004.0,N
1514063055.2,286047004.0,N
1514063075.9,286047004.8,N
1514063095.7,286047001.4,N
1514063115.6,286047000.1,N
1514063135.4,286047001.8,N
1514063155.3,286047001.3,N
1514063175.1,286047001.6,N
1514063176.0,286047001.6,N
1514063195.8,286047004.2,N
1514063215.7,286047003.0,N
1514063235.5,286047001.4,N
1514063255.3,286047002.8,N
1514063275.2,286046998.6,N
1514063295.0,286047001.1,N
1514063295.9,286047001.1,N
1514063315.8,286047000.2,N
1514063335.6,286047002.1,N
1514063355.4,286047001.5,N
1514063375.3,286047001.6,N
1514063395.1,286047002.0,N
1514063415.9,286047002.5,N
1514063435.7,286047000.1,N
1514063455.5,286047001.9,N
1514063475.4,286047002.2,N
1514063495.2,286047001.6,N
1514063515.0,286047001.2,N
1514063516.0,286047001.2,N
1514063535.8,286046999.9,N
1514063555.6,286046999.9,N
1514063575.5,286047000.1,N
1514063595.3,286047001.3,N
1514063615.1,286047002.1,N
1514063635.9,286047001.3,N
1514063655.7,286047002.4,N
1514063675.6,286046999.7,N
1514063695.4,286047001.6,N
1514063715.2,286046998.5,N
1514063735.1,286047001.1,N
1514063736.0,286047001.1,N
1514063755.8,286047001.2,N
1514063775.7,286046999.9,N
1514063795.5,286047002.4,N
1514063815.3,286047000.1,N
1514063835.2,286047001.7,N
1514063855.0,286047003.9,Y
1514063855.9,286047003.9,P
1514063875.8,286047000.0,N
1514063895.6,286046999.7,N
1514063915.4,286046998.1,N
1514063935.3,286046999.0,N
1514063955.1,286046997.6,N
1514063975.8,286046993.4,Y
1514063995.7,286046997.5,P
1514064015.5,286046998.9,N
1514064035.4,286046996.9,P
1514064055.2,286046997.4,N
1514064075.0,286046998.9,N
1514064075.9,286046998.9,N
1514064095.8,286046998.5,N
1514064115.6,286046997.3,N
1514064135.5,286046998.6,N
1514064155.3,286047001.5,N
1514064175.1,286047004.0,Y
1514064195.9,286047004.9,P
1514064215.7,286047003.1,N
1514064235.5,286047003.9,N
1514064255.4,286047002.6,N
1514064275.2,286047002.2,N
1514064295.1,286047001.3,N
1514064296.0,286047001.3,N
1514064315.8,286047001.4,N
1514064335.6,286046999.9,N
1514064355.5,286047003.7,N
1514064375.3,286047005.6,Y
1514064395.2,286047003.7,P
1514064415.9,286047004.2,P
1514064435.7,286047003.5,P
1514064455.6,286047001.9,N
1514064475.4,286047000.6,N
1514064495.2,286047002.4,N
1514064515.1,286047001.8,N
1514064516.0,286047001.8,N
1514064535.8,286047001.6,N
1514064555.7,286046998.9,N
1514064575.5,286047002.4,N
1514064595.3,286047003.6,N
1514064615.2,286047003.4,N
1514064635.0,286047003.0,N
1514064635.9,286047003.0,N
1514064655.8,286047005.5,Y
1514064675.6,286047002.7,P
1514064695.4,286046998.6,P
1514064715.3,286046999.4,N
1514064735.1,286046999.3,N
1514064755.8,286047002.5,N
1514064775.7,286047002.6,N
1514064795.5,286046999.9,N
1514064815.4,286046998.8,N
1514064835.2,286046999.4,N
1514064855.0,286046998.7,N
1514064855.9,286046998.7,N
1514064875.8,286047000.4,N
1514064895.6,286047001.6,N
1514064915.4,286047000.5,N
1514064935.3,286047001.4,N
1514064955.1,286047002.1,N
1514064975.9,286047002.5,N
1514064995.7,286046998.4,N
1514065015.5,286046999.2,N
1514065035.4,286046998.3,N
1514065055.2,286047000.3,N
1514065075.1,286046999.9,N
1514065076.0,286046999.9,N
1514065095.8,286046997.4,N
1514065115.6,286046997.8,N
1514065165.5,286046999.4,E
1514065175.4,286047001.0,N
1514065195.3,286047000.5,P
1514065215.1,286047001.2,P
1514065235.8,286046996.6,Y
1514065255.7,286046995.2,P
1514065275.5,286046993.3,N
1514065295.4,286046993.8,N
1514065315.2,286046995.5,N
1514065335.0,286046997.9,N
1514065335.9,286046997.9,N
1514065355.8,286046999.1,N
1514065375.6,286046995.2,N
1514065395.5,286046993.4,N
1514065415.3,286046995.3,N
1514065435.1,286046995.2,N
1514065455.9,286046995.1,N
1514065475.7,286046995.6,N
1514065495.5,286046997.3,N
1514065515.4,286046996.6,N
1514065535.2,286046999.0,N
1514065555.1,286046997.5,N
1514065556.0,286046997.5,N
1514065575.8,286046995.8,N
1514065595.6,286046996.3,N
1514065615.5,286046992.7,Y
1514065635.3,286046995.2,P
1514065655.2,286046995.8,P
1514065675.9,286046997.1,P
1514065695.7,286046999.4,N
1514065715.6,286046996.6,N
1514065735.4,286046998.3,N
1514065755.3,286046998.9,N
1514065775.1,286046998.2,N
1514065776.0,286046998.2,N
1514065795.8,286047000.6,N
1514065815.7,286046999.8,N
1514065835.5,286046998.2,N
1514065855.4,286047001.0,N
1514065875.2,286047000.3,N
1514065895.0,286047000.2,N
1514065895.9,286047000.2,N
1514065915.8,286047002.4,N
1514065935.6,286047002.2,N
1514065955.5,286047002.7,N
1514065975.3,286046999.9,N
1514065995.1,286047002.4,N
1514066015.9,286046999.9,N
1514066035.7,286046999.8,N
1514066055.5,286047002.0,N
1514066075.4,286047002.1,N
1514066095.2,286046998.1,N
1514066115.1,286047004.3,N
1514066116.0,286047004.3,N
1514066135.8,286046999.7,N
1514066155.6,286047001.7,N
1514066175.5,286047003.8,N
1514066195.3,286047001.9,N
1514066215.2,286047011.9,Y
1514066235.9,286047000.5,P
1514066255.7,286047002.5,P
1514066275.6,286047002.2,N
1514066295.4,286047001.0,N
1514066315.2,286047000.3,N
1514066335.1,286046998.4,N
1514066336.0,286046998.4,N
1514066355.8,286047000.8,N
1514066375.7,286047000.5,N
1514066395.5,286047001.1,N
